SWA4219 KSFO-KSTL

Flight info

Callsign SWA4219
Flight time 3h 10m
Altitude 37000
Route TRUKN2 SYRAH JSICA Q130 ROCCY DVC FLOOD KK54E ANX KAYLA3
Aircraft B737/M-SADE2E3GIJ4RWZ/LB1D1

Departure

Time 2026-05-04 18:11
Airport San Francisco International Airport (KSFO)

Arrival

Time 2026-05-04 21:21
Airport St. Louis Lambert International Airport (KSTL)
Time Latitude Longitude Altitude Speed Heading
2026-05-04 17:49 37.61679 -122.38166 20 ft 0 kts 13°
2026-05-04 18:01 37.61677 -122.38166 20 ft 2 kts 13°
2026-05-04 18:01 37.61660 -122.38172 21 ft 3 kts 20°
2026-05-04 18:01 37.61642 -122.38183 21 ft 3 kts 34°
2026-05-04 18:02 37.61624 -122.38215 20 ft 1 kts 101°
2026-05-04 18:02 37.61625 -122.38217 20 ft 1 kts 102°
2026-05-04 18:04 37.61617 -122.38197 12 ft 7 kts 121°
2026-05-04 18:05 37.61570 -122.38106 20 ft 15 kts 128°
2026-05-04 18:05 37.61477 -122.38088 20 ft 14 kts 205°
2026-05-04 18:05 37.61401 -122.38081 21 ft 11 kts 124°
2026-05-04 18:05 37.61371 -122.38005 20 ft 9 kts 117°
2026-05-04 18:06 37.61290 -122.37815 20 ft 19 kts 118°
2026-05-04 18:06 37.61226 -122.37642 20 ft 22 kts 99°
2026-05-04 18:06 37.61285 -122.37480 20 ft 20 kts 36°
2026-05-04 18:07 37.61399 -122.37402 21 ft 18 kts 27°
2026-05-04 18:07 37.61500 -122.37332 20 ft 16 kts 39°
2026-05-04 18:07 37.61556 -122.37222 20 ft 15 kts 77°
2026-05-04 18:07 37.61540 -122.37086 20 ft 17 kts 113°
2026-05-04 18:08 37.61479 -122.36947 20 ft 19 kts 127°
2026-05-04 18:08 37.61387 -122.36813 20 ft 22 kts 131°
2026-05-04 18:08 37.61308 -122.36646 20 ft 22 kts 118°
2026-05-04 18:08 37.61240 -122.36482 20 ft 20 kts 118°
2026-05-04 18:09 37.61123 -122.36201 20 ft 16 kts 118°
2026-05-04 18:09 37.61051 -122.35976 20 ft 11 kts 81°
2026-05-04 18:10 37.61099 -122.35904 20 ft 12 kts 30°
2026-05-04 18:10 37.61194 -122.35906 20 ft 20 kts 314°
2026-05-04 18:10 37.61310 -122.36168 21 ft 64 kts 297°
2026-05-04 18:10 37.61637 -122.36947 20 ft 133 kts 297°
2026-05-04 18:11 37.62159 -122.38173 181 ft 178 kts 297°
2026-05-04 18:11 37.62799 -122.39608 805 ft 198 kts 301°
2026-05-04 18:11 37.63832 -122.40670 1787 ft 195 kts 342°
2026-05-04 18:11 37.65267 -122.40567 2233 ft 228 kts 24°
2026-05-04 18:12 37.66480 -122.39116 2584 ft 259 kts 64°
2026-05-04 18:12 37.67064 -122.36943 3472 ft 264 kts 73°
2026-05-04 18:12 37.67621 -122.34720 4485 ft 266 kts 72°
2026-05-04 18:12 37.68222 -122.32529 5432 ft 269 kts 71°
2026-05-04 18:13 37.68884 -122.30312 6561 ft 270 kts 70°
2026-05-04 18:13 37.69584 -122.28099 7536 ft 273 kts 69°
2026-05-04 18:13 37.71042 -122.23630 9496 ft 278 kts 68°
2026-05-04 18:14 37.71799 -122.21367 10420 ft 281 kts 65°
2026-05-04 18:14 37.72797 -122.19138 10824 ft 305 kts 58°
2026-05-04 18:14 37.74020 -122.16830 11238 ft 324 kts 56°
2026-05-04 18:15 37.76614 -122.12027 12857 ft 335 kts 57°
2026-05-04 18:15 37.79210 -122.07074 14606 ft 342 kts 57°
2026-05-04 18:15 37.80517 -122.04547 15425 ft 345 kts 57°
2026-05-04 18:16 37.81828 -122.02005 16334 ft 347 kts 58°
2026-05-04 18:16 37.82897 -121.99304 17206 ft 349 kts 73°
2026-05-04 18:16 37.83506 -121.96324 18099 ft 351 kts 76°
2026-05-04 18:17 37.84590 -121.90248 19521 ft 355 kts 77°
2026-05-04 18:17 37.85131 -121.87196 20262 ft 356 kts 76°
2026-05-04 18:17 37.86243 -121.81032 21700 ft 360 kts 76°
2026-05-04 18:18 37.86809 -121.77934 22458 ft 362 kts 76°
2026-05-04 18:18 37.87381 -121.74822 23232 ft 364 kts 76°
2026-05-04 18:18 37.87957 -121.71692 23951 ft 366 kts 76°
2026-05-04 18:18 37.88538 -121.68537 24494 ft 370 kts 76°
2026-05-04 18:19 37.89707 -121.62173 25605 ft 376 kts 76°
2026-05-04 18:19 37.90302 -121.58932 26158 ft 379 kts 76°
2026-05-04 18:19 37.90899 -121.55672 26684 ft 382 kts 76°
2026-05-04 18:20 37.91501 -121.52380 27183 ft 385 kts 76°
2026-05-04 18:20 37.92106 -121.49063 27661 ft 387 kts 76°
2026-05-04 18:20 37.92714 -121.45725 28113 ft 390 kts 76°
2026-05-04 18:20 37.93325 -121.42364 28550 ft 393 kts 76°
2026-05-04 18:21 37.93939 -121.38977 28986 ft 396 kts 76°
2026-05-04 18:21 37.94558 -121.35565 29404 ft 399 kts 76°
2026-05-04 18:21 37.95181 -121.32120 29797 ft 402 kts 76°
2026-05-04 18:21 37.95806 -121.28656 30189 ft 404 kts 76°
2026-05-04 18:22 37.96435 -121.25166 30429 ft 409 kts 76°
2026-05-04 18:22 37.97071 -121.21631 30616 ft 414 kts 76°
2026-05-04 18:22 37.97715 -121.18044 30815 ft 420 kts 76°
2026-05-04 18:22 37.98366 -121.14415 31002 ft 425 kts 76°
2026-05-04 18:23 37.99014 -121.10788 31219 ft 428 kts 76°
2026-05-04 18:23 37.99646 -121.07085 31483 ft 431 kts 78°
2026-05-04 18:23 38.00238 -121.03343 31748 ft 434 kts 78°
2026-05-04 18:23 38.00814 -120.99569 32003 ft 437 kts 79°
2026-05-04 18:24 38.01388 -120.95777 32241 ft 440 kts 79°
2026-05-04 18:24 38.01966 -120.91958 32494 ft 443 kts 79°
2026-05-04 18:24 38.02552 -120.88105 32743 ft 446 kts 79°
2026-05-04 18:24 38.03143 -120.84226 32980 ft 449 kts 79°
2026-05-04 18:25 38.03738 -120.80338 33248 ft 450 kts 79°
2026-05-04 18:25 38.04337 -120.76422 33499 ft 453 kts 79°
2026-05-04 18:25 38.04940 -120.72478 33700 ft 456 kts 80°
2026-05-04 18:25 38.05545 -120.68514 33901 ft 460 kts 80°
2026-05-04 18:26 38.06153 -120.64518 34113 ft 462 kts 80°
2026-05-04 18:26 38.06757 -120.60543 34343 ft 463 kts 80°
2026-05-04 18:26 38.07366 -120.56525 34561 ft 464 kts 80°
2026-05-04 18:26 38.07974 -120.52499 34796 ft 465 kts 80°
2026-05-04 18:27 38.08583 -120.48461 35036 ft 466 kts 80°
2026-05-04 18:27 38.09191 -120.44416 35264 ft 467 kts 81°
2026-05-04 18:27 38.09800 -120.40356 35498 ft 467 kts 81°
2026-05-04 18:27 38.10407 -120.36301 35735 ft 467 kts 81°
2026-05-04 18:28 38.11013 -120.32242 35942 ft 468 kts 81°
2026-05-04 18:28 38.11619 -120.28170 36113 ft 470 kts 81°
2026-05-04 18:28 38.12831 -120.19988 36263 ft 478 kts 81°
2026-05-04 18:29 38.13445 -120.15830 36400 ft 481 kts 81°
2026-05-04 18:29 38.14061 -120.11653 36603 ft 481 kts 82°
2026-05-04 18:29 38.14677 -120.07465 36815 ft 481 kts 82°
2026-05-04 18:29 38.15292 -120.03271 36988 ft 483 kts 82°
2026-05-04 18:30 38.16930 -119.92047 36981 ft 485 kts 82°
2026-05-04 18:31 38.18152 -119.83627 36970 ft 483 kts 82°
2026-05-04 18:31 38.19362 -119.75243 36951 ft 482 kts 82°
2026-05-04 18:32 38.20566 -119.66858 36926 ft 482 kts 83°
2026-05-04 18:32 38.21761 -119.58478 36899 ft 482 kts 83°
2026-05-04 18:33 38.22955 -119.50060 36899 ft 485 kts 83°
2026-05-04 18:33 38.24152 -119.41591 36888 ft 487 kts 83°
2026-05-04 18:34 38.25348 -119.33076 36874 ft 491 kts 83°
2026-05-04 18:34 38.26544 -119.24508 36871 ft 493 kts 83°
2026-05-04 18:35 38.27740 -119.15899 36868 ft 495 kts 83°
2026-05-04 18:35 38.28936 -119.07243 36849 ft 498 kts 84°
2026-05-04 18:36 38.30122 -118.98612 36845 ft 499 kts 84°
2026-05-04 18:36 38.31311 -118.89914 36840 ft 499 kts 84°
2026-05-04 18:37 38.32494 -118.81203 36865 ft 499 kts 84°
2026-05-04 18:37 38.33671 -118.72479 36876 ft 500 kts 84°
2026-05-04 18:38 38.34846 -118.63727 36886 ft 502 kts 84°
2026-05-04 18:38 38.36016 -118.54963 36880 ft 502 kts 84°
2026-05-04 18:39 38.37181 -118.46176 36884 ft 503 kts 85°
2026-05-04 18:39 38.38340 -118.37384 36855 ft 504 kts 85°
2026-05-04 18:40 38.39489 -118.28618 36835 ft 504 kts 85°
2026-05-04 18:40 38.40639 -118.19795 36793 ft 504 kts 85°
2026-05-04 18:41 38.41780 -118.10983 36803 ft 503 kts 85°
2026-05-04 18:41 38.42915 -118.02166 36793 ft 504 kts 85°
2026-05-04 18:42 38.44043 -117.93347 36796 ft 504 kts 85°
2026-05-04 18:42 38.45166 -117.84514 36787 ft 504 kts 85°
2026-05-04 18:43 38.46283 -117.75670 36791 ft 505 kts 86°
2026-05-04 18:43 38.47388 -117.66866 36786 ft 506 kts 86°
2026-05-04 18:44 38.48495 -117.58000 36789 ft 506 kts 86°
2026-05-04 18:44 38.49595 -117.49122 36788 ft 507 kts 86°
2026-05-04 18:45 38.50692 -117.40219 36784 ft 508 kts 86°
2026-05-04 18:45 38.51783 -117.31304 36788 ft 508 kts 86°
2026-05-04 18:46 38.52078 -117.22390 36799 ft 499 kts 98°
2026-05-04 18:46 38.51755 -117.13525 36781 ft 500 kts 99°
2026-05-04 18:47 38.51412 -117.04696 36778 ft 501 kts 99°
2026-05-04 18:47 38.51110 -116.95773 36775 ft 502 kts 98°
2026-05-04 18:48 38.50829 -116.86860 36795 ft 503 kts 98°
2026-05-04 18:48 38.50545 -116.77924 36771 ft 503 kts 98°
2026-05-04 18:49 38.50254 -116.69048 36774 ft 503 kts 98°
2026-05-04 18:49 38.49954 -116.60143 36769 ft 502 kts 98°
2026-05-04 18:50 38.49646 -116.51240 36771 ft 502 kts 98°
2026-05-04 18:50 38.49331 -116.42350 36776 ft 501 kts 98°
2026-05-04 18:51 38.49010 -116.33473 36772 ft 500 kts 98°
2026-05-04 18:51 38.48685 -116.24609 36761 ft 500 kts 98°
2026-05-04 18:52 38.48351 -116.15731 36773 ft 500 kts 98°
2026-05-04 18:52 38.48010 -116.06855 36758 ft 500 kts 98°
2026-05-04 18:53 38.47663 -115.97990 36762 ft 500 kts 98°
2026-05-04 18:53 38.47310 -115.89117 36750 ft 501 kts 98°
2026-05-04 18:54 38.46951 -115.80297 36741 ft 501 kts 98°
2026-05-04 18:54 38.46584 -115.71418 36736 ft 501 kts 98°
2026-05-04 18:55 38.46209 -115.62541 36744 ft 501 kts 98°
2026-05-04 18:55 38.45636 -115.49232 36756 ft 501 kts 98°
2026-05-04 18:56 38.45243 -115.40331 36743 ft 503 kts 98°
2026-05-04 18:56 38.44847 -115.31486 36746 ft 502 kts 98°
2026-05-04 18:57 38.44443 -115.22594 36737 ft 502 kts 98°
2026-05-04 18:57 38.44031 -115.13705 36748 ft 502 kts 98°
2026-05-04 18:58 38.43612 -115.04803 36754 ft 502 kts 98°
2026-05-04 18:58 38.43185 -114.95908 36730 ft 503 kts 98°
2026-05-04 18:59 38.42749 -114.86975 36761 ft 506 kts 98°
2026-05-04 18:59 38.42307 -114.78000 36776 ft 508 kts 98°
2026-05-04 19:00 38.41859 -114.69050 36767 ft 509 kts 98°
2026-05-04 19:00 38.41400 -114.60022 36763 ft 511 kts 99°
2026-05-04 19:01 38.40935 -114.51005 36771 ft 510 kts 99°
2026-05-04 19:01 38.40462 -114.41980 36775 ft 509 kts 99°
2026-05-04 19:02 38.39879 -114.33043 36769 ft 505 kts 105°
2026-05-04 19:02 38.38103 -114.24502 36777 ft 496 kts 114°
2026-05-04 19:03 38.36038 -114.16106 36768 ft 497 kts 114°
2026-05-04 19:03 38.33987 -114.07683 36770 ft 499 kts 114°
2026-05-04 19:04 38.31967 -113.99208 36775 ft 501 kts 114°
2026-05-04 19:04 38.29948 -113.90685 36766 ft 504 kts 114°
2026-05-04 19:05 38.27911 -113.82116 36763 ft 506 kts 114°
2026-05-04 19:05 38.25861 -113.73526 36764 ft 508 kts 115°
2026-05-04 19:06 38.23792 -113.64902 36776 ft 510 kts 115°
2026-05-04 19:06 38.21708 -113.56247 36768 ft 513 kts 115°
2026-05-04 19:07 38.19610 -113.47554 36761 ft 514 kts 115°
2026-05-04 19:07 38.17500 -113.38852 36761 ft 516 kts 114°
2026-05-04 19:08 38.15371 -113.30111 36763 ft 518 kts 116°
2026-05-04 19:08 38.13248 -113.21415 36776 ft 519 kts 116°
2026-05-04 19:09 38.11098 -113.12642 36788 ft 521 kts 116°
2026-05-04 19:09 38.08934 -113.03844 36787 ft 522 kts 116°
2026-05-04 19:10 38.06761 -112.95044 36779 ft 524 kts 117°
2026-05-04 19:10 38.04575 -112.86220 36798 ft 525 kts 117°
2026-05-04 19:11 38.02388 -112.77430 36792 ft 527 kts 117°
2026-05-04 19:11 38.00177 -112.68566 36823 ft 528 kts 117°
2026-05-04 19:12 37.96832 -112.55225 36797 ft 530 kts 117°
2026-05-04 19:13 37.94591 -112.46314 36839 ft 530 kts 117°
2026-05-04 19:13 37.92338 -112.37406 36893 ft 531 kts 118°
2026-05-04 19:14 37.90069 -112.28462 36948 ft 534 kts 118°
2026-05-04 19:14 37.87788 -112.19502 36972 ft 536 kts 118°
2026-05-04 19:15 37.85513 -112.10584 36990 ft 536 kts 118°
2026-05-04 19:15 37.83334 -112.01546 36977 ft 544 kts 111°
2026-05-04 19:16 37.82626 -111.91865 36968 ft 559 kts 95°
2026-05-04 19:16 37.82769 -111.81989 36903 ft 560 kts 94°
2026-05-04 19:17 37.82931 -111.72156 36830 ft 559 kts 95°
2026-05-04 19:17 37.83009 -111.62340 36834 ft 557 kts 95°
2026-05-04 19:18 37.83035 -111.52607 36823 ft 556 kts 95°
2026-05-04 19:18 37.83048 -111.42829 36828 ft 555 kts 95°
2026-05-04 19:19 37.83059 -111.33045 36821 ft 556 kts 95°
2026-05-04 19:19 37.83066 -111.23269 36782 ft 556 kts 95°
2026-05-04 19:20 37.83064 -111.15125 36794 ft 555 kts 95°
2026-05-04 19:20 37.83057 -111.03783 36810 ft 554 kts 95°
2026-05-04 19:21 37.83040 -110.94012 36809 ft 556 kts 95°
2026-05-04 19:21 37.83019 -110.85870 36796 ft 557 kts 95°
2026-05-04 19:22 37.82987 -110.76070 36802 ft 557 kts 95°
2026-05-04 19:22 37.82947 -110.66236 36798 ft 558 kts 95°
2026-05-04 19:23 37.82898 -110.56417 36812 ft 557 kts 95°
2026-05-04 19:23 37.82843 -110.46647 36774 ft 554 kts 95°
2026-05-04 19:24 37.82781 -110.36974 36799 ft 553 kts 95°
2026-05-04 19:24 37.82708 -110.27227 36811 ft 553 kts 95°
2026-05-04 19:25 37.82627 -110.17497 36797 ft 553 kts 95°
2026-05-04 19:25 37.82539 -110.07767 36814 ft 553 kts 95°
2026-05-04 19:26 37.82442 -109.98045 36835 ft 553 kts 95°
2026-05-04 19:26 37.82340 -109.88390 36837 ft 553 kts 95°
2026-05-04 19:27 37.82228 -109.78663 36874 ft 554 kts 95°
2026-05-04 19:27 37.82107 -109.68899 36905 ft 555 kts 95°
2026-05-04 19:28 37.81979 -109.59145 36916 ft 555 kts 95°
2026-05-04 19:28 37.81850 -109.49389 36910 ft 555 kts 95°
2026-05-04 19:29 37.81702 -109.39600 36895 ft 556 kts 95°
2026-05-04 19:29 37.81547 -109.29867 36898 ft 552 kts 95°
2026-05-04 19:30 37.81387 -109.20179 36865 ft 554 kts 95°
2026-05-04 19:30 37.81219 -109.10449 36847 ft 554 kts 95°
2026-05-04 19:31 37.81044 -109.00710 36852 ft 554 kts 95°
2026-05-04 19:31 37.81136 -108.90938 36844 ft 558 kts 84°
2026-05-04 19:32 37.82532 -108.81357 36855 ft 558 kts 78°
2026-05-04 19:32 37.84140 -108.71742 36856 ft 559 kts 78°
2026-05-04 19:33 37.85692 -108.62095 36872 ft 558 kts 79°
2026-05-04 19:33 37.87173 -108.52441 36878 ft 558 kts 79°
2026-05-04 19:34 37.88629 -108.42781 36884 ft 559 kts 79°
2026-05-04 19:34 37.90084 -108.33086 36904 ft 560 kts 79°
2026-05-04 19:35 37.91525 -108.23449 36974 ft 561 kts 79°
2026-05-04 19:35 37.92971 -108.13757 37077 ft 559 kts 79°
2026-05-04 19:36 37.94405 -108.04068 37062 ft 559 kts 80°
2026-05-04 19:36 37.95823 -107.94412 37091 ft 558 kts 79°
2026-05-04 19:37 37.97236 -107.84741 37126 ft 559 kts 79°
2026-05-04 19:37 37.98656 -107.75014 37040 ft 561 kts 79°
2026-05-04 19:38 38.00052 -107.65359 36971 ft 561 kts 79°
2026-05-04 19:38 38.01452 -107.55606 36952 ft 562 kts 79°
2026-05-04 19:39 38.02845 -107.45838 36924 ft 564 kts 79°
2026-05-04 19:39 38.03557 -107.40943 37061 ft 564 kts 82°
2026-05-04 19:39 38.04248 -107.36037 36966 ft 565 kts 79°
2026-05-04 19:39 38.04934 -107.31141 36858 ft 560 kts 79°
2026-05-04 19:40 38.05608 -107.26322 36941 ft 555 kts 79°
2026-05-04 19:40 38.06959 -107.16672 36905 ft 555 kts 79°
2026-05-04 19:41 38.08315 -107.06960 36929 ft 561 kts 79°
2026-05-04 19:41 38.09675 -106.97162 36890 ft 565 kts 79°
2026-05-04 19:42 38.11021 -106.87372 36887 ft 561 kts 79°
2026-05-04 19:42 38.12345 -106.77661 36893 ft 561 kts 79°
2026-05-04 19:43 38.13671 -106.67896 36886 ft 561 kts 79°
2026-05-04 19:43 38.14992 -106.58119 36884 ft 561 kts 79°
2026-05-04 19:44 38.16302 -106.48362 36889 ft 560 kts 79°
2026-05-04 19:44 38.17602 -106.38583 36879 ft 561 kts 79°
2026-05-04 19:45 38.18896 -106.28793 36847 ft 562 kts 79°
2026-05-04 19:45 38.20183 -106.18994 36811 ft 562 kts 79°
2026-05-04 19:46 38.21451 -106.09269 36855 ft 560 kts 79°
2026-05-04 19:46 38.22723 -105.99467 36863 ft 561 kts 79°
2026-05-04 19:47 38.23985 -105.89675 36855 ft 562 kts 79°
2026-05-04 19:47 38.25243 -105.79851 36857 ft 563 kts 79°
2026-05-04 19:48 38.26493 -105.69996 36823 ft 564 kts 79°
2026-05-04 19:48 38.27737 -105.60132 36838 ft 564 kts 79°
2026-05-04 19:49 38.28972 -105.50281 36820 ft 565 kts 79°
2026-05-04 19:49 38.30200 -105.40406 36815 ft 565 kts 79°
2026-05-04 19:50 38.31414 -105.30578 36819 ft 565 kts 79°
2026-05-04 19:50 38.32629 -105.20668 36790 ft 566 kts 79°
2026-05-04 19:51 38.33836 -105.10763 36766 ft 565 kts 79°
2026-05-04 19:51 38.34991 -105.00854 36747 ft 565 kts 80°
2026-05-04 19:52 38.36080 -104.90927 36752 ft 566 kts 80°
2026-05-04 19:52 38.37158 -104.80981 36765 ft 566 kts 80°
2026-05-04 19:53 38.38241 -104.71022 36772 ft 566 kts 80°
2026-05-04 19:53 38.39311 -104.61153 36807 ft 566 kts 80°
2026-05-04 19:54 38.40383 -104.51208 36815 ft 566 kts 80°
2026-05-04 19:54 38.41444 -104.41270 36799 ft 566 kts 80°
2026-05-04 19:55 38.42497 -104.31308 36764 ft 566 kts 80°
2026-05-04 19:55 38.43543 -104.21343 36720 ft 566 kts 80°
2026-05-04 19:56 38.44579 -104.11380 36668 ft 567 kts 80°
2026-05-04 19:56 38.45608 -104.01412 36658 ft 566 kts 80°
2026-05-04 19:57 38.46621 -103.91501 36656 ft 566 kts 80°
2026-05-04 19:57 38.47631 -103.81544 36662 ft 566 kts 80°
2026-05-04 19:58 38.48634 -103.71573 36656 ft 566 kts 80°
2026-05-04 19:58 38.49625 -103.61623 36662 ft 566 kts 80°
2026-05-04 19:59 38.50610 -103.51653 36660 ft 566 kts 80°
2026-05-04 19:59 38.51587 -103.41678 36661 ft 565 kts 80°
2026-05-04 20:00 38.52549 -103.31763 36667 ft 565 kts 80°
2026-05-04 20:00 38.53508 -103.21796 36663 ft 566 kts 80°
2026-05-04 20:01 38.54459 -103.11818 36666 ft 565 kts 80°
2026-05-04 20:01 38.55400 -103.01850 36666 ft 565 kts 80°
2026-05-04 20:02 38.56334 -102.91869 36665 ft 565 kts 80°
2026-05-04 20:02 38.57258 -102.81897 36669 ft 565 kts 80°
2026-05-04 20:03 38.58168 -102.71991 36671 ft 564 kts 80°
2026-05-04 20:03 38.59073 -102.62031 36680 ft 564 kts 80°
2026-05-04 20:04 38.59972 -102.52059 36675 ft 564 kts 80°
2026-05-04 20:04 38.60861 -102.42090 36682 ft 564 kts 80°
2026-05-04 20:05 38.61740 -102.32138 36682 ft 564 kts 80°
2026-05-04 20:05 38.62613 -102.22156 36680 ft 563 kts 80°
2026-05-04 20:06 38.63476 -102.12191 36676 ft 563 kts 80°
2026-05-04 20:06 38.64324 -102.02303 36676 ft 563 kts 80°
2026-05-04 20:07 38.65174 -101.92284 36672 ft 562 kts 80°
2026-05-04 20:07 38.66009 -101.82338 36672 ft 562 kts 80°
2026-05-04 20:08 38.66830 -101.72461 36667 ft 562 kts 80°
2026-05-04 20:08 38.67648 -101.62527 36667 ft 561 kts 80°
2026-05-04 20:09 38.68457 -101.52582 36669 ft 561 kts 80°
2026-05-04 20:09 38.69257 -101.42650 36666 ft 561 kts 80°
2026-05-04 20:10 38.70048 -101.32721 36669 ft 560 kts 80°
2026-05-04 20:10 38.70700 -101.24462 36668 ft 560 kts 80°
2026-05-04 20:11 38.71475 -101.14535 36672 ft 560 kts 81°
2026-05-04 20:11 38.72364 -101.03011 36695 ft 559 kts 81°
2026-05-04 20:12 38.72993 -100.94767 36711 ft 559 kts 81°
2026-05-04 20:12 38.73867 -100.83190 36687 ft 559 kts 81°
2026-05-04 20:13 38.74482 -100.74940 36690 ft 558 kts 81°
2026-05-04 20:13 38.75212 -100.65040 36680 ft 557 kts 81°
2026-05-04 20:14 38.75933 -100.55155 36680 ft 557 kts 81°
2026-05-04 20:14 38.76646 -100.45267 36676 ft 556 kts 81°
2026-05-04 20:15 38.77344 -100.35480 36682 ft 555 kts 81°
2026-05-04 20:15 38.78041 -100.25566 36680 ft 554 kts 81°
2026-05-04 20:16 38.78720 -100.15800 36685 ft 553 kts 81°
2026-05-04 20:16 38.79395 -100.05976 36686 ft 552 kts 81°
2026-05-04 20:17 38.80059 -99.96182 36685 ft 551 kts 81°
2026-05-04 20:17 38.80715 -99.86387 36691 ft 551 kts 81°
2026-05-04 20:18 38.81358 -99.76662 36692 ft 550 kts 81°
2026-05-04 20:18 38.81997 -99.66877 36698 ft 549 kts 81°
2026-05-04 20:19 38.82625 -99.57136 36714 ft 549 kts 81°
2026-05-04 20:19 38.83245 -99.47386 36722 ft 548 kts 81°
2026-05-04 20:20 38.83857 -99.37635 36728 ft 547 kts 81°
2026-05-04 20:20 38.84459 -99.27911 36734 ft 546 kts 81°
2026-05-04 20:21 38.85053 -99.18187 36739 ft 546 kts 81°
2026-05-04 20:21 38.85927 -99.03636 36704 ft 545 kts 82°
2026-05-04 20:22 38.86494 -98.94016 36711 ft 544 kts 82°
2026-05-04 20:22 38.87059 -98.84312 36718 ft 544 kts 82°
2026-05-04 20:23 38.87614 -98.74626 36717 ft 543 kts 82°
2026-05-04 20:23 38.88159 -98.64969 36711 ft 543 kts 82°
2026-05-04 20:24 38.88697 -98.55306 36701 ft 542 kts 82°
2026-05-04 20:24 38.89227 -98.45640 36687 ft 542 kts 82°
2026-05-04 20:25 38.89745 -98.36037 36682 ft 541 kts 82°
2026-05-04 20:25 38.90258 -98.26404 36673 ft 541 kts 82°
2026-05-04 20:26 38.90763 -98.16746 36679 ft 540 kts 82°
2026-05-04 20:26 38.91260 -98.07105 36680 ft 540 kts 82°
2026-05-04 20:27 38.91745 -97.97543 36692 ft 540 kts 82°
2026-05-04 20:27 38.92225 -97.87917 36698 ft 540 kts 82°
2026-05-04 20:28 38.92696 -97.78294 36707 ft 540 kts 82°
2026-05-04 20:28 38.93160 -97.68670 36716 ft 539 kts 82°
2026-05-04 20:29 38.93616 -97.59044 36716 ft 539 kts 82°
2026-05-04 20:29 38.94064 -97.49432 36703 ft 539 kts 82°
2026-05-04 20:30 38.94503 -97.39821 36696 ft 539 kts 82°
2026-05-04 20:30 38.94932 -97.30270 36679 ft 539 kts 82°
2026-05-04 20:31 38.95356 -97.20657 36667 ft 539 kts 83°
2026-05-04 20:31 38.95771 -97.11054 36668 ft 538 kts 83°
2026-05-04 20:32 38.96179 -97.01433 36680 ft 538 kts 83°
2026-05-04 20:32 38.96579 -96.91830 36687 ft 538 kts 83°
2026-05-04 20:33 38.96971 -96.82231 36698 ft 538 kts 83°
2026-05-04 20:33 38.97352 -96.72692 36692 ft 538 kts 83°
2026-05-04 20:34 38.97727 -96.63090 36693 ft 538 kts 83°
2026-05-04 20:34 38.98096 -96.53474 36690 ft 538 kts 83°
2026-05-04 20:35 38.98456 -96.43873 36684 ft 538 kts 83°
2026-05-04 20:35 38.98808 -96.34264 36677 ft 538 kts 83°
2026-05-04 20:36 38.99153 -96.24653 36672 ft 538 kts 83°
2026-05-04 20:36 38.99489 -96.15037 36662 ft 538 kts 83°
2026-05-04 20:37 38.99816 -96.05495 36671 ft 537 kts 83°
2026-05-04 20:37 39.00169 -95.95905 36684 ft 536 kts 82°
2026-05-04 20:38 39.00722 -95.86355 36699 ft 535 kts 80°
2026-05-04 20:38 39.01324 -95.76830 36713 ft 535 kts 81°
2026-05-04 20:39 39.01890 -95.67284 36707 ft 535 kts 81°
2026-05-04 20:39 39.02425 -95.57743 36712 ft 535 kts 81°
2026-05-04 20:40 39.02943 -95.48247 36701 ft 534 kts 81°
2026-05-04 20:40 39.03458 -95.38707 36697 ft 534 kts 81°
2026-05-04 20:41 39.03966 -95.29180 36702 ft 533 kts 81°
2026-05-04 20:41 39.04463 -95.19726 36705 ft 532 kts 81°
2026-05-04 20:42 39.04954 -95.10237 36700 ft 532 kts 81°
2026-05-04 20:42 39.05437 -95.00750 36697 ft 530 kts 81°
2026-05-04 20:43 39.05911 -94.91278 36696 ft 530 kts 82°
2026-05-04 20:43 39.06378 -94.81812 36685 ft 529 kts 82°
2026-05-04 20:44 39.06836 -94.72359 36692 ft 528 kts 82°
2026-05-04 20:44 39.07283 -94.62979 36695 ft 527 kts 82°
2026-05-04 20:45 39.07723 -94.53579 36693 ft 526 kts 82°
2026-05-04 20:45 39.08157 -94.44157 36702 ft 525 kts 82°
2026-05-04 20:46 39.08581 -94.34781 36707 ft 524 kts 82°
2026-05-04 20:46 39.08998 -94.25413 36708 ft 523 kts 82°
2026-05-04 20:47 39.09407 -94.16065 36690 ft 522 kts 82°
2026-05-04 20:47 39.09441 -94.11447 36666 ft 526 kts 94°
2026-05-04 20:47 39.08861 -94.06802 36727 ft 526 kts 99°
2026-05-04 20:48 39.07293 -93.97595 36694 ft 526 kts 102°
2026-05-04 20:48 39.05674 -93.88411 36680 ft 525 kts 101°
2026-05-04 20:49 39.04144 -93.79225 36692 ft 524 kts 100°
2026-05-04 20:49 39.02662 -93.70047 36698 ft 523 kts 100°
2026-05-04 20:50 39.01181 -93.60871 36697 ft 523 kts 100°
2026-05-04 20:50 38.99701 -93.51785 36702 ft 522 kts 100°
2026-05-04 20:51 38.98200 -93.42652 36695 ft 522 kts 101°
2026-05-04 20:51 38.96694 -93.33534 36702 ft 521 kts 101°
2026-05-04 20:52 38.95182 -93.24431 36700 ft 521 kts 101°
2026-05-04 20:52 38.93665 -93.15338 36699 ft 520 kts 101°
2026-05-04 20:53 38.92143 -93.06260 36699 ft 519 kts 101°
2026-05-04 20:53 38.90627 -92.97263 36703 ft 519 kts 101°
2026-05-04 20:54 38.89094 -92.88210 36712 ft 518 kts 101°
2026-05-04 20:54 38.87557 -92.79182 36716 ft 518 kts 101°
2026-05-04 20:55 38.86016 -92.70170 36711 ft 517 kts 101°
2026-05-04 20:55 38.84466 -92.61155 36713 ft 516 kts 101°
2026-05-04 20:56 38.82913 -92.52164 36704 ft 516 kts 101°
2026-05-04 20:56 38.81369 -92.43271 36687 ft 506 kts 101°
2026-05-04 20:57 38.80612 -92.38933 36689 ft 490 kts 101°
2026-05-04 20:57 38.79875 -92.34721 36698 ft 476 kts 101°
2026-05-04 20:57 38.79162 -92.30648 36694 ft 462 kts 101°
2026-05-04 20:57 38.78464 -92.26669 36697 ft 449 kts 101°
2026-05-04 20:58 38.77787 -92.22819 36697 ft 437 kts 101°
2026-05-04 20:58 38.77129 -92.19077 36706 ft 427 kts 101°
2026-05-04 20:58 38.75817 -92.11628 36737 ft 439 kts 101°
2026-05-04 20:59 38.74441 -92.03850 36722 ft 452 kts 101°
2026-05-04 20:59 38.73046 -91.96022 36689 ft 446 kts 101°
2026-05-04 21:00 38.71687 -91.88349 36688 ft 440 kts 101°
2026-05-04 21:00 38.70562 -91.81974 36701 ft 442 kts 101°
2026-05-04 21:01 38.69088 -91.73014 36677 ft 442 kts 90°
2026-05-04 21:01 38.69095 -91.65197 36691 ft 439 kts 84°
2026-05-04 21:02 38.69240 -91.58658 36704 ft 440 kts 85°
2026-05-04 21:02 38.69317 -91.50843 36123 ft 446 kts 86°
2026-05-04 21:03 38.69331 -91.46872 35657 ft 446 kts 87°
2026-05-04 21:03 38.69342 -91.42890 35164 ft 447 kts 87°
2026-05-04 21:03 38.69353 -91.38901 34687 ft 447 kts 88°
2026-05-04 21:03 38.69367 -91.34920 34221 ft 447 kts 88°
2026-05-04 21:04 38.69616 -91.30965 33696 ft 443 kts 71°
2026-05-04 21:04 38.70829 -91.27486 33179 ft 430 kts 48°
2026-05-04 21:04 38.72925 -91.24828 32643 ft 412 kts 26°
2026-05-04 21:04 38.75402 -91.23097 32180 ft 403 kts 18°
2026-05-04 21:05 38.77923 -91.21649 31670 ft 401 kts 17°
2026-05-04 21:05 38.80488 -91.20249 31164 ft 401 kts 16°
2026-05-04 21:05 38.83055 -91.18869 30669 ft 400 kts 16°
2026-05-04 21:05 38.85587 -91.17370 30148 ft 407 kts 27°
2026-05-04 21:06 38.87667 -91.14817 29634 ft 423 kts 52°
2026-05-04 21:06 38.88881 -91.11357 29097 ft 430 kts 73°
2026-05-04 21:06 38.89322 -91.07557 28571 ft 431 kts 87°
2026-05-04 21:06 38.89107 -91.03723 27907 ft 430 kts 97°
2026-05-04 21:07 38.88669 -90.99937 27096 ft 427 kts 99°
2026-05-04 21:07 38.88193 -90.96181 26327 ft 424 kts 99°
2026-05-04 21:07 38.87724 -90.92462 25575 ft 421 kts 99°
2026-05-04 21:07 38.87292 -90.88750 24839 ft 418 kts 94°
2026-05-04 21:08 38.87571 -90.85098 24084 ft 411 kts 69°
2026-05-04 21:08 38.88868 -90.81972 23406 ft 396 kts 45°
2026-05-04 21:08 38.90939 -90.79797 22644 ft 379 kts 22°
2026-05-04 21:08 38.93310 -90.78435 21885 ft 370 kts 15°
2026-05-04 21:09 38.95705 -90.77262 21101 ft 366 kts 14°
2026-05-04 21:09 38.98084 -90.76132 20344 ft 363 kts 13°
2026-05-04 21:09 39.00444 -90.75011 19607 ft 360 kts 13°
2026-05-04 21:09 39.02790 -90.73893 18876 ft 357 kts 13°
2026-05-04 21:10 39.05110 -90.72778 18175 ft 354 kts 13°
2026-05-04 21:10 39.07451 -90.72166 17362 ft 335 kts 349°
2026-05-04 21:10 39.09594 -90.72926 16595 ft 312 kts 323°
2026-05-04 21:10 39.11091 -90.74802 15841 ft 297 kts 299°
2026-05-04 21:11 39.11959 -90.77173 15109 ft 291 kts 286°
2026-05-04 21:11 39.12345 -90.79718 14374 ft 289 kts 274°
2026-05-04 21:11 39.12220 -90.82285 13643 ft 288 kts 260°
2026-05-04 21:11 39.11545 -90.84716 12880 ft 291 kts 245°
2026-05-04 21:12 39.10320 -90.86805 12214 ft 294 kts 228°
2026-05-04 21:12 39.08680 -90.88303 11879 ft 288 kts 213°
2026-05-04 21:12 39.06794 -90.89119 11511 ft 286 kts 197°
2026-05-04 21:12 39.04801 -90.89235 10781 ft 299 kts 180°
2026-05-04 21:13 39.02762 -90.88548 10218 ft 306 kts 162°
2026-05-04 21:13 39.00910 -90.87185 9734 ft 308 kts 148°
2026-05-04 21:13 38.99422 -90.85189 9237 ft 311 kts 130°
2026-05-04 21:13 38.98220 -90.82912 8727 ft 307 kts 127°
2026-05-04 21:14 38.97076 -90.80607 8226 ft 303 kts 127°
2026-05-04 21:14 38.95964 -90.78343 7775 ft 297 kts 127°
2026-05-04 21:14 38.94871 -90.76127 7351 ft 290 kts 128°
2026-05-04 21:14 38.93797 -90.73963 6940 ft 285 kts 128°
2026-05-04 21:15 38.92705 -90.71874 6554 ft 278 kts 131°
2026-05-04 21:15 38.91622 -90.69885 6334 ft 266 kts 130°
2026-05-04 21:15 38.90606 -90.67918 6010 ft 262 kts 129°
2026-05-04 21:15 38.89622 -90.65946 5677 ft 263 kts 129°
2026-05-04 21:16 38.88639 -90.63959 5318 ft 265 kts 129°
2026-05-04 21:16 38.87646 -90.61949 4973 ft 267 kts 129°
2026-05-04 21:16 38.86662 -90.59950 4620 ft 262 kts 130°
2026-05-04 21:16 38.85705 -90.58006 4311 ft 252 kts 130°
2026-05-04 21:17 38.84783 -90.56137 3960 ft 243 kts 130°
2026-05-04 21:17 38.83897 -90.54340 3659 ft 235 kts 130°
2026-05-04 21:17 38.83040 -90.52605 3346 ft 227 kts 130°
2026-05-04 21:17 38.82211 -90.50921 3060 ft 217 kts 131°
2026-05-04 21:18 38.81435 -90.49344 2767 ft 201 kts 131°
2026-05-04 21:18 38.80728 -90.47912 2545 ft 187 kts 131°
2026-05-04 21:18 38.80055 -90.46540 2313 ft 176 kts 131°
2026-05-04 21:18 38.79436 -90.45284 2158 ft 154 kts 133°
2026-05-04 21:19 38.78870 -90.44143 1880 ft 147 kts 132°
2026-05-04 21:19 38.78336 -90.43060 1730 ft 143 kts 134°
2026-05-04 21:19 38.77800 -90.41973 1528 ft 145 kts 133°
2026-05-04 21:19 38.77275 -90.40901 1290 ft 143 kts 133°
2026-05-04 21:20 38.76752 -90.39821 1109 ft 142 kts 129°
2026-05-04 21:20 38.76239 -90.38792 994 ft 130 kts 129°
2026-05-04 21:20 38.75764 -90.37832 832 ft 127 kts 128°
2026-05-04 21:20 38.75303 -90.36883 631 ft 123 kts 126°
2026-05-04 21:21 38.74883 -90.36031 569 ft 99 kts 126°
2026-05-04 21:21 38.74568 -90.35391 582 ft 74 kts 122°
2026-05-04 21:21 38.74317 -90.34885 586 ft 62 kts 123°
2026-05-04 21:21 38.74119 -90.34478 601 ft 40 kts 121°
2026-05-04 21:22 38.74006 -90.34479 602 ft 16 kts 214°
2026-05-04 21:22 38.73911 -90.34555 598 ft 16 kts 210°
2026-05-04 21:22 38.73821 -90.34628 597 ft 15 kts 212°
2026-05-04 21:22 38.73737 -90.34695 596 ft 13 kts 212°
2026-05-04 21:23 38.73664 -90.34753 597 ft 11 kts 212°
2026-05-04 21:23 38.73660 -90.34840 596 ft 11 kts 298°
2026-05-04 21:23 38.73699 -90.34920 595 ft 10 kts 301°
2026-05-04 21:23 38.73741 -90.35004 592 ft 13 kts 303°
2026-05-04 21:24 38.73792 -90.35109 589 ft 16 kts 302°
2026-05-04 21:24 38.73878 -90.35278 583 ft 29 kts 300°
2026-05-04 21:24 38.73990 -90.35511 577 ft 29 kts 302°
2026-05-04 21:24 38.73991 -90.35680 573 ft 19 kts 216°
2026-05-04 21:25 38.73882 -90.35768 574 ft 18 kts 226°
2026-05-04 21:25 38.73868 -90.35849 575 ft 6 kts 302°
2026-05-04 21:25 38.73874 -90.35870 572 ft 5 kts 272°
2026-05-04 21:25 38.73858 -90.35900 573 ft 4 kts 223°
2026-05-04 21:26 38.73840 -90.35920 572 ft 3 kts 221°
2026-05-04 21:26 38.73835 -90.35925 571 ft 1 kts 221°
2026-05-04 21:26 38.73834 -90.35927 571 ft 0 kts 221°